Weather in Khomutovskaya

Russia / Rostov Oblast     47°02′38″N   40°03′53″E
temp.,
°C
wind,
m/s
gust,
m/s
humid.,
%
clouds,
%
prec.,
mm/h
press.,
hPa
HPBL,
m
13 august, sat
sat1300:00+28ese6132796 0.0 1013468
03:00+24e410368 0.0 1013214
06:00+23e512403 0.0 1013284
09:00+31ese812241 0.0 10131332
12:00+36ese912155 0.0 10112747
15:00+37ese911140 0.0 10093319
18:00+36e8111612 0.0 10083487
21:00+31ene815225 0.0 1008452
14 august, sun
sun1400:00+27ene511300 0.0 1009225
03:00+25e6143177 0.0 1009333
06:00+24e5143262 0.0 1009331
09:00+31e7122131 0.0 10081139
12:00+37e9121351 0.0 10073160
15:00+39ese9111211 0.0 10053445
18:00+37ese710151 0.0 10043062
21:00+33ese7131937 0.0 1005454
15 august, mon
mon1500:00+31ese716215 0.0 1005528
03:00+26e6133056 0.0 1007294
06:00+25e615324 0.0 1008397
09:00+33ese915197 0.0 10071586
12:00+38ese1113130 0.0 10062898
15:00+40ese10111351 0.0 10053442
18:00+38e81114100 0.0 10051691
21:00+35e1116176 0.0 10061085
16 august, tue
tue1600:00+30e11182392 0.0 1008829
03:00+28e81622100 0.0 1008731
06:00+26ene6142522 0.2 1009536
09:00+32ese914205 0.2 10081263
12:00+36se7719100 0.0 10081932
15:00+37se551958 0.1 10071440
18:00+33w352891 0.5 1007126
21:00+28wnw47465 0.5 1008133
17 august, wed
wed1700:00+26wnw48590 0.0 1008146
03:00+24wnw226217 0.0 100828
06:00+23w116561 0.1 100818
09:00+31w22380 0.1 1008544
12:00+36wnw32271 0.0 10071513
15:00+38wnw32223 0.0 10062547
18:00+37wnw652513 0.0 1005883
21:00+28wnw61145100 0.0 1005220